Phoenix, AZ

6:15 AM MST on May 30, 2017 (GMT -0700)
Phoenix Sky Harbor International

Weather History for KPHX - August, 2013

Change the Weather History Date:

Monday, August 5, 2013

  Actual Average Record
Temperature  
Mean Temperature 94 °F 94 °F  
Max Temperature 101 °F 105 °F 114 °F (1969)
Min Temperature 86 °F 84 °F 69 °F (1953)
Degree Days  
Heating Degree Days 0 0  
Month to date heating degree days 0 0  
Since 1 June heating degree days 0 0  
Since 1 July heating degree days 0 0  
Cooling Degree Days 29 29  
Month to date cooling degree days 162 145  
Year to date cooling degree days 3121 2729  
Since 1 June cooling degree days 2023 1843  
Growing Degree Days 43 (Base 50)    
Moisture  
Dew Point 54 °F    
Average Humidity 28    
Maximum Humidity 41    
Minimum Humidity 14    
Precipitation  
Precipitation T in 0.04 in 1.16 in (1931)
Month to date precipitation T 0.18  
Year to date precipitation 4.38 4.46  
Snow  
Snow 0.00 in - - ()
Month to date snowfall 0.0  
Year to date snowfall 0.0  
Since 1 July snowfall 0.0  
Snow Depth 0.00 in    
Sea Level Pressure  
Sea Level Pressure 29.82 in    
Wind  
Wind Speed 8 mph (South)    
Max Wind Speed 18 mph    
Max Gust Speed 27 mph    
Visibility 10 miles    
Events Rain    
T = Trace of Precipitation, MM = Missing Value Source: NWS Daily Summary

Daily Weather History Graph

Daily Weather History Graph

Search for Another Location

Airport or City:

Trip Planner

Search our weather history database for the weather conditions in past years. The results will help you decide how hot, cold, wet, or windy it might be!

Date:

Astronomy

Aug. 05, 2013 Rise Set
Actual Time 5:43 AM MST 7:23 PM MST
Civil Twilight 5:16 AM MST 7:50 PM MST
Nautical Twilight 4:44 AM MST 8:22 PM MST
Astronomical Twilight 4:10 AM MST 8:56 PM MST
Moon 4:41 AM MST (8/5) 6:28 PM MST (8/5)
Length of Visible Light 14h 33m
Length of Day
13h 40m
Waning Crescent, 1% of the Moon is Illuminated
Aug 5
Waning Crescent
Aug 6
New
Aug 14
First Quarter
Aug 20
Full
Aug 28
Last Quarter

Hourly Weather History & Observations

Time (MST) Temp. Heat Index Dew Point Humidity Pressure Visibility Wind Dir Wind Speed Gust Speed Precip Events Conditions
12:51 AM 93.0 °F - 52.0 °F 25% 29.78 in 10.0 mi North 4.6 mph - N/A   Mostly Cloudy
1:51 AM 91.0 °F - 51.1 °F 25% 29.78 in 10.0 mi Calm Calm - N/A   Mostly Cloudy
2:51 AM 93.0 °F - 43.0 °F 18% 29.78 in 10.0 mi North 5.8 mph - N/A   Mostly Cloudy
3:51 AM 91.9 °F - 37.0 °F 15% 29.79 in 10.0 mi North 3.5 mph - N/A   Mostly Cloudy
4:51 AM 88.0 °F - 50.0 °F 27% 29.80 in 10.0 mi East 3.5 mph - N/A   Mostly Cloudy
5:51 AM 86.0 °F 84.0 °F 53.1 °F 32% 29.82 in 10.0 mi SE 5.8 mph - N/A   Overcast
6:51 AM 86.0 °F 84.7 °F 55.9 °F 36% 29.85 in 10.0 mi SE 8.1 mph - N/A   Mostly Cloudy
7:51 AM 87.1 °F - 52.0 °F 30% 29.88 in 10.0 mi SSE 10.4 mph - N/A   Mostly Cloudy
8:51 AM 90.0 °F 87.7 °F 54.0 °F 29% 29.90 in 10.0 mi ESE 9.2 mph - N/A   Mostly Cloudy
9:51 AM 90.0 °F 90.6 °F 63.0 °F 40% 29.91 in 10.0 mi ESE 15.0 mph - N/A   Mostly Cloudy
10:51 AM 90.0 °F 90.6 °F 63.0 °F 40% 29.91 in 10.0 mi SE 11.5 mph - N/A   Mostly Cloudy
11:51 AM 93.9 °F 94.0 °F 61.0 °F 33% 29.88 in 10.0 mi SE 9.2 mph - N/A   Mostly Cloudy
12:51 PM 93.9 °F 93.2 °F 59.0 °F 31% 29.86 in 10.0 mi East 3.5 mph - N/A   Mostly Cloudy
1:51 PM 95.0 °F 94.0 °F 57.9 °F 29% 29.84 in 10.0 mi East 4.6 mph - N/A   Mostly Cloudy
2:51 PM 97.0 °F 94.6 °F 54.0 °F 23% 29.82 in 10.0 mi South 5.8 mph - N/A   Mostly Cloudy
3:51 PM 100.0 °F - 42.1 °F 14% 29.78 in 10.0 mi WSW 6.9 mph - N/A   Mostly Cloudy
4:51 PM 100.0 °F - 44.1 °F 15% 29.77 in 10.0 mi West 5.8 mph - N/A   Mostly Cloudy
5:51 PM 100.0 °F - 48.9 °F 18% 29.76 in 10.0 mi West 6.9 mph - N/A   Mostly Cloudy
6:51 PM 97.0 °F 94.6 °F 53.1 °F 23% 29.76 in 10.0 mi WSW 10.4 mph - N/A   Mostly Cloudy
7:51 PM 96.1 °F 95.2 °F 57.9 °F 28% 29.77 in 10.0 mi WSW 11.5 mph 19.6 mph N/A   Mostly Cloudy
8:51 PM 93.0 °F 92.7 °F 60.1 °F 33% 29.79 in 10.0 mi WSW 13.8 mph - N/A   Mostly Cloudy
9:51 PM 93.0 °F 93.0 °F 61.0 °F 34% 29.81 in 10.0 mi WSW 11.5 mph - N/A   Mostly Cloudy
10:51 PM 91.9 °F 91.5 °F 60.1 °F 34% 29.81 in 10.0 mi West 8.1 mph - N/A   Mostly Cloudy
11:51 PM 91.0 °F 90.2 °F 59.0 °F 34% 29.82 in 10.0 mi West 8.1 mph - 0.00 in Rain Light Rain